When you browse on this site, cookies collect data to enhance your experience and personalize the content and advertising you see.
Visit our Privacy Policy to learn more. By continuing to use the site, you agree to this use of cookies and data.
  • In Schweiz
  • Länderverzeichnis
  • Für 7 Tage
  • Wassertemperatur
  • Satellitenkarten
  • Wetterkarte
  • Widgets
  • user-avatar
    Anmelden

    Stündliche Wetter Fier

    Heute, 20 März, Mittwoch

    Zeit Temperatur Niederschläge Wind Luftdruck Luftfeuchtigkeit
    00:00 +12°C° 0 mm 1 m/S 763 mmHg 88%
    01:00 +12°C° 0 mm 1 m/S 763 mmHg 88%
    02:00 +12°C° 0 mm 1 m/S 763 mmHg 88%
    03:00 +12°C° 0 mm 1 m/S 763 mmHg 87%
    04:00 +12°C° 0 mm 2 m/S 763 mmHg 87%
    05:00 +12°C° 0 mm 2 m/S 763 mmHg 84%
    06:00 +13°C° 0 mm 1 m/S 763 mmHg 82%
    07:00 +13°C° 0 mm 1 m/S 763 mmHg 79%
    08:00 +15°C° 0 mm 2 m/S 763 mmHg 71%
    09:00 +17°C° 0 mm 2 m/S 763 mmHg 63%
    10:00 +19°C° 0 mm 3 m/S 763 mmHg 54%
    11:00 +20°C° 0 mm 3 m/S 764 mmHg 52%
    12:00 +21°C° 0 mm 4 m/S 764 mmHg 49%
    13:00 +22°C° 0 mm 4 m/S 764 mmHg 47%
    14:00 +21°C° 0 mm 4 m/S 764 mmHg 50%
    15:00 +20°C° 0 mm 5 m/S 763 mmHg 54%
    16:00 +20°C° 0 mm 5 m/S 763 mmHg 57%
    17:00 +18°C° 0 mm 4 m/S 764 mmHg 61%
    18:00 +17°C° 0 mm 3 m/S 764 mmHg 66%
    19:00 +16°C° 0 mm 2 m/S 764 mmHg 70%
    20:00 +16°C° 0 mm 2 m/S 765 mmHg 68%
    21:00 +16°C° 0 mm 2 m/S 765 mmHg 66%
    22:00 +16°C° 0 mm 2 m/S 765 mmHg 64%
    23:00 +16°C° 0 mm 2 m/S 766 mmHg 62%

    Morgen, 21 März, Donnerstag

    Zeit Temperatur Niederschläge Wind Luftdruck Luftfeuchtigkeit
    00:00 +14°C° 0 mm 3 m/S 766 mmHg 60%
    01:00 +14°C° 0 mm 3 m/S 766 mmHg 58%
    02:00 +14°C° 0 mm 3 m/S 766 mmHg 59%
    03:00 +13°C° 0 mm 3 m/S 766 mmHg 60%
    04:00 +13°C° 0 mm 3 m/S 766 mmHg 61%
    05:00 +13°C° 0 mm 3 m/S 766 mmHg 62%
    06:00 +13°C° 0 mm 3 m/S 767 mmHg 63%
    07:00 +13°C° 0 mm 3 m/S 767 mmHg 64%
    08:00 +17°C° 0 mm 3 m/S 767 mmHg 57%
    09:00 +19°C° 0 mm 3 m/S 767 mmHg 51%
    10:00 +21°C° 0 mm 3 m/S 767 mmHg 44%
    11:00 +22°C° 0 mm 3 m/S 767 mmHg 41%
    12:00 +24°C° 0 mm 3 m/S 767 mmHg 39%
    13:00 +25°C° 0 mm 3 m/S 766 mmHg 37%
    14:00 +24°C° 0 mm 3 m/S 766 mmHg 38%
    15:00 +23°C° 0 mm 4 m/S 766 mmHg 39%
    16:00 +22°C° 0 mm 4 m/S 766 mmHg 41%
    17:00 +20°C° 0 mm 4 m/S 766 mmHg 44%
    18:00 +19°C° 0 mm 4 m/S 767 mmHg 48%
    19:00 +17°C° 0 mm 4 m/S 767 mmHg 51%
    20:00 +15°C° 0 mm 4 m/S 767 mmHg 54%
    21:00 +14°C° 0 mm 4 m/S 768 mmHg 56%
    22:00 +14°C° 0 mm 4 m/S 768 mmHg 59%
    23:00 +13°C° 0 mm 3 m/S 768 mmHg 61%

    übermorgen, 22 März, Freitag

    Zeit Temperatur Niederschläge Wind Luftdruck Luftfeuchtigkeit
    00:00 +13°C° 0 mm 3 m/S 768 mmHg 62%
    01:00 +12°C° 0 mm 3 m/S 768 mmHg 63%
    02:00 +12°C° 0 mm 3 m/S 768 mmHg 65%
    03:00 +13°C° 0 mm 2 m/S 768 mmHg 66%
    04:00 +13°C° 0 mm 2 m/S 768 mmHg 67%
    05:00 +13°C° 0 mm 2 m/S 768 mmHg 67%
    06:00 +12°C° 0 mm 3 m/S 768 mmHg 67%
    07:00 +13°C° 0 mm 3 m/S 768 mmHg 68%
    08:00 +16°C° 0 mm 3 m/S 768 mmHg 60%
    09:00 +18°C° 0 mm 3 m/S 768 mmHg 52%
    10:00 +20°C° 0 mm 3 m/S 768 mmHg 44%
    11:00 +21°C° 0 mm 3 m/S 768 mmHg 41%
    12:00 +22°C° 0 mm 3 m/S 767 mmHg 39%
    13:00 +24°C° 0 mm 3 m/S 767 mmHg 36%
    14:00 +22°C° 0 mm 3 m/S 767 mmHg 38%
    15:00 +22°C° 0 mm 3 m/S 766 mmHg 40%
    16:00 +22°C° 0 mm 4 m/S 766 mmHg 42%
    17:00 +20°C° 0 mm 3 m/S 766 mmHg 49%
    18:00 +18°C° 0 mm 3 m/S 766 mmHg 56%
    19:00 +16°C° 0 mm 3 m/S 767 mmHg 63%
    20:00 +14°C° 0 mm 3 m/S 767 mmHg 62%
    21:00 +14°C° 0 mm 3 m/S 767 mmHg 61%
    22:00 +14°C° 0 mm 2 m/S 767 mmHg 60%
    23:00 +14°C° 0 mm 2 m/S 767 mmHg 59%

    23 März, Samstag

    Zeit Temperatur Niederschläge Wind Luftdruck Luftfeuchtigkeit
    00:00 +13°C° 0 mm 2 m/S 767 mmHg 59%
    01:00 +13°C° 0 mm 2 m/S 767 mmHg 59%
    02:00 +13°C° 0 mm 2 m/S 767 mmHg 60%
    03:00 +12°C° 0 mm 2 m/S 766 mmHg 61%
    04:00 +12°C° 0 mm 2 m/S 766 mmHg 62%
    05:00 +12°C° 0 mm 2 m/S 766 mmHg 63%
    06:00 +13°C° 0 mm 2 m/S 766 mmHg 63%
    07:00 +14°C° 0 mm 2 m/S 766 mmHg 64%
    08:00 +16°C° 0 mm 1 m/S 766 mmHg 56%
    09:00 +19°C° 0 mm 1 m/S 766 mmHg 49%
    10:00 +19°C° 0 mm 0 m/S 766 mmHg 42%
    11:00 +22°C° 0 mm 1 m/S 766 mmHg 42%
    12:00 +21°C° 0 mm 2 m/S 766 mmHg 41%
    13:00 +22°C° 0 mm 4 m/S 765 mmHg 41%
    14:00 +21°C° 0 mm 3 m/S 765 mmHg 45%
    15:00 +20°C° 0 mm 3 m/S 765 mmHg 49%
    16:00 +19°C° 0 mm 3 m/S 765 mmHg 53%
    17:00 +17°C° 0 mm 2 m/S 765 mmHg 58%
    18:00 +16°C° 0 mm 2 m/S 765 mmHg 63%
    19:00 +14°C° 0 mm 1 m/S 765 mmHg 68%
    20:00 +14°C° 0 mm 1 m/S 766 mmHg 68%
    21:00 +13°C° 0 mm 0 m/S 766 mmHg 68%
    22:00 +12°C° 0 mm 0 m/S 766 mmHg 68%
    23:00 +12°C° 0 mm 0 m/S 766 mmHg 68%

    24 März, Sonntag

    Zeit Temperatur Niederschläge Wind Luftdruck Luftfeuchtigkeit
    00:00 +12°C° 0 mm 0 m/S 766 mmHg 69%
    01:00 +13°C° 0 mm 1 m/S 766 mmHg 69%
    02:00 +13°C° 0 mm 1 m/S 766 mmHg 69%
    03:00 +12°C° 0 mm 1 m/S 766 mmHg 68%
    04:00 +12°C° 0 mm 1 m/S 765 mmHg 68%
    05:00 +13°C° 0 mm 1 m/S 765 mmHg 66%
    06:00 +14°C° 0 mm 1 m/S 766 mmHg 65%
    07:00 +14°C° 0 mm 1 m/S 766 mmHg 63%
    08:00 +16°C° 0 mm 1 m/S 766 mmHg 57%
    09:00 +19°C° 0 mm 1 m/S 766 mmHg 52%
    10:00 +21°C° 0 mm 1 m/S 766 mmHg 46%
    11:00 +20°C° 0 mm 2 m/S 765 mmHg 47%
    12:00 +21°C° 0 mm 3 m/S 765 mmHg 48%
    13:00 +21°C° 0 mm 4 m/S 764 mmHg 49%
    14:00 +21°C° 0 mm 3 m/S 764 mmHg 53%
    15:00 +20°C° 0 mm 3 m/S 763 mmHg 56%
    16:00 +19°C° 0 mm 3 m/S 763 mmHg 60%
    17:00 +18°C° 0 mm 2 m/S 763 mmHg 67%
    18:00 +16°C° 0 mm 1 m/S 763 mmHg 74%
    19:00 +14°C° 0 mm 1 m/S 763 mmHg 81%
    20:00 +13°C° 0 mm 0 m/S 763 mmHg 82%
    21:00 +13°C° 0 mm 0 m/S 763 mmHg 83%
    22:00 +12°C° 0 mm 0 m/S 763 mmHg 84%
    23:00 +12°C° 0 mm 0 m/S 763 mmHg 84%

    25 März, Montag

    Zeit Temperatur Niederschläge Wind Luftdruck Luftfeuchtigkeit
    00:00 +12°C° 0 mm 0 m/S 763 mmHg 85%
    01:00 +13°C° 0 mm 1 m/S 763 mmHg 86%
    02:00 +13°C° 0 mm 1 m/S 762 mmHg 86%
    03:00 +12°C° 0 mm 1 m/S 762 mmHg 87%
    04:00 +11°C° 0 mm 0 m/S 762 mmHg 87%
    05:00 +13°C° 0 mm 1 m/S 762 mmHg 85%
    06:00 +13°C° 0 mm 1 m/S 762 mmHg 83%
    07:00 +14°C° 0 mm 1 m/S 762 mmHg 80%
    08:00 +15°C° 0 mm 1 m/S 761 mmHg 74%
    09:00 +16°C° 0 mm 2 m/S 761 mmHg 68%
    10:00 +17°C° 0 mm 2 m/S 761 mmHg 62%
    11:00 +17°C° 0.2 mm 2 m/S 761 mmHg 63%
    12:00 +17°C° 0.2 mm 3 m/S 761 mmHg 64%
    13:00 +17°C° 0.2 mm 3 m/S 760 mmHg 65%
    14:00 +17°C° 0 mm 3 m/S 760 mmHg 66%
    15:00 +16°C° 0 mm 3 m/S 760 mmHg 67%
    16:00 +16°C° 0 mm 2 m/S 759 mmHg 69%
    17:00 +15°C° 0 mm 2 m/S 759 mmHg 74%
    18:00 +14°C° 0 mm 1 m/S 760 mmHg 80%
    19:00 +12°C° 0 mm 0 m/S 760 mmHg 85%
    20:00 +13°C° 0 mm 1 m/S 760 mmHg 86%
    21:00 +12°C° 0 mm 1 m/S 760 mmHg 87%
    22:00 +12°C° 0 mm 1 m/S 761 mmHg 88%
    23:00 +12°C° 0 mm 1 m/S 761 mmHg 88%
    Mehr zeigen